�������l�o���
Date,Time,MP-1(��Sv/h),MP-2(��Sv/h),MP-3(��Sv/h),MP-4(��Sv/h),MP-5(��Sv/h),MP-6(��Sv/h),MP-7(��Sv/h),MP-8(��Sv/h),����,����(m/s),���J
2021/03/26,00:00,0.636,0.933,0.591,1.158,0.819,0.373,0.656,0.616,���k��,2.5,��
2021/03/26,00:10,0.637,0.933,0.591,1.155,0.819,0.372,0.658,0.615,�k��,2.0,��
2021/03/26,00:20,0.636,0.931,0.590,1.154,0.819,0.374,0.658,0.614,���k��,2.0,��
2021/03/26,00:30,0.636,0.932,0.591,1.156,0.819,0.374,0.658,0.614,�k�k��,1.7,��
2021/03/26,00:40,0.637,0.933,0.590,1.155,0.818,0.373,0.657,0.615,�k�k��,1.9,��
2021/03/26,00:50,0.634,0.933,0.593,1.154,0.818,0.374,0.656,0.614,�k��,3.7,��
2021/03/26,01:00,0.637,0.932,0.591,1.156,0.820,0.372,0.658,0.614,�k��,2.3,��
2021/03/26,01:10,0.638,0.932,0.592,1.154,0.819,0.374,0.657,0.616,�k��,4.1,��
2021/03/26,01:20,0.637,0.932,0.590,1.154,0.820,0.373,0.657,0.616,�k�k��,3.0,��
2021/03/26,01:30,0.637,0.933,0.591,1.154,0.820,0.373,0.657,0.615,�k��,3.6,��
2021/03/26,01:40,0.638,0.933,0.591,1.156,0.818,0.374,0.656,0.616,�k��,5.1,��
2021/03/26,01:50,0.637,0.932,0.592,1.157,0.819,0.374,0.657,0.615,�k��,5.0,��
2021/03/26,02:00,0.635,0.931,0.593,1.155,0.819,0.372,0.657,0.614,�k�k��,5.5,��
2021/03/26,02:10,0.636,0.932,0.590,1.156,0.819,0.373,0.656,0.613,�k,2.6,��
2021/03/26,02:20,0.639,0.933,0.592,1.154,0.820,0.374,0.656,0.616,�k,1.9,��
2021/03/26,02:30,0.638,0.932,0.590,1.157,0.818,0.373,0.656,0.615,�k,2.5,��
2021/03/26,02:40,0.635,0.931,0.590,1.155,0.819,0.374,0.658,0.616,�k�k��,3.3,��
2021/03/26,02:50,0.636,0.931,0.590,1.156,0.820,0.374,0.656,0.616,�k�k��,3.1,��
2021/03/26,03:00,0.637,0.934,0.591,1.155,0.820,0.374,0.655,0.616,�k��,4.7,��
2021/03/26,03:10,0.636,0.932,0.590,1.157,0.818,0.373,0.658,0.617,�k�k��,4.0,��
2021/03/26,03:20,0.635,0.930,0.591,1.154,0.821,0.375,0.658,0.614,�k��,4.2,��
2021/03/26,03:30,0.637,0.933,0.591,1.156,0.821,0.373,0.658,0.616,�k��,5.7,��
2021/03/26,03:40,0.637,0.934,0.592,1.157,0.820,0.374,0.657,0.616,�k��,5.6,��
2021/03/26,03:50,0.636,0.934,0.591,1.156,0.820,0.374,0.657,0.615,�k�k��,4.5,��
2021/03/26,04:00,0.637,0.933,0.591,1.157,0.821,0.374,0.657,0.615,�k��,4.7,��
2021/03/26,04:10,0.635,0.932,0.592,1.154,0.819,0.374,0.656,0.616,�k��,4.0,��
2021/03/26,04:20,0.636,0.932,0.592,1.157,0.821,0.373,0.657,0.614,�k��,3.2,��
2021/03/26,04:30,0.636,0.931,0.591,1.156,0.820,0.374,0.656,0.614,���k��,5.1,��
2021/03/26,04:40,0.636,0.930,0.591,1.156,0.819,0.374,0.656,0.614,���k��,5.7,��
2021/03/26,04:50,0.637,0.930,0.591,1.154,0.819,0.375,0.657,0.614,�k��,5.0,��
2021/03/26,05:00,0.636,0.930,0.592,1.154,0.821,0.374,0.657,0.616,�k�k��,5.4,��
2021/03/26,05:10,0.636,0.930,0.590,1.157,0.819,0.373,0.657,0.614,�k�k��,6.6,��
2021/03/26,05:20,0.637,0.930,0.590,1.157,0.819,0.373,0.657,0.616,�k�k��,5.3,��
2021/03/26,05:30,0.636,0.932,0.592,1.155,0.819,0.373,0.658,0.617,�k�k��,6.1,��
2021/03/26,05:40,0.636,0.932,0.590,1.157,0.818,0.374,0.658,0.616,�k�k��,6.9,��
2021/03/26,05:50,0.638,0.932,0.590,1.154,0.820,0.373,0.657,0.615,�k,6.8,��
2021/03/26,06:00,0.636,0.931,0.591,1.156,0.819,0.374,0.657,0.615,�k,4.7,��
2021/03/26,06:10,0.635,0.933,0.592,1.157,0.819,0.374,0.656,0.615,�k�k��,3.5,��
2021/03/26,06:20,0.636,0.931,0.590,1.157,0.819,0.373,0.656,0.615,�k�k��,2.3,��
2021/03/26,06:30,0.637,0.932,0.591,1.156,0.819,0.374,0.655,0.615,�k��,2.2,��
2021/03/26,06:40,0.637,0.931,0.591,1.157,0.818,0.374,0.656,0.615,���k��,4.1,��
2021/03/26,06:50,0.636,0.933,0.591,1.155,0.819,0.373,0.657,0.616,���k��,2.5,��
2021/03/26,07:00,0.636,0.933,0.591,1.156,0.819,0.373,0.658,0.615,�k��,2.2,��
2021/03/26,07:10,0.636,0.932,0.592,1.157,0.820,0.373,0.656,0.614,�k��,1.5,��
2021/03/26,07:20,0.635,0.932,0.591,1.159,0.819,0.374,0.658,0.616,�k�k��,1.1,��
2021/03/26,07:30,0.636,0.934,0.592,1.158,0.818,0.373,0.659,0.617,�k�k��,0.8,��
2021/03/26,07:40,0.637,0.935,0.589,1.154,0.819,0.374,0.656,0.617,�k�k��,1.7,��
2021/03/26,07:50,0.637,0.935,0.591,1.157,0.821,0.374,0.657,0.616,�k�k��,1.7,��
2021/03/26,08:00,0.638,0.932,0.592,1.156,0.821,0.372,0.659,0.615,�k�k��,2.8,��
2021/03/26,08:10,0.637,0.932,0.592,1.156,0.820,0.372,0.657,0.616,�k,2.2,��
2021/03/26,08:20,0.638,0.931,0.593,1.156,0.821,0.372,0.658,0.617,�k,2.0,��
2021/03/26,08:30,0.637,0.930,0.592,1.157,0.821,0.372,0.656,0.617,�k�k��,2.0,��
2021/03/26,08:40,0.639,0.931,0.593,1.158,0.822,0.373,0.657,0.618,�k,2.6,��
2021/03/26,08:50,0.639,0.928,0.592,1.157,0.820,0.373,0.656,0.618,�k,2.0,��
2021/03/26,09:00,0.639,0.929,0.591,1.158,0.819,0.373,0.658,0.615,�k�k��,3.9,��
2021/03/26,09:10,0.637,0.930,0.592,1.158,0.822,0.373,0.655,0.613,���k��,5.7,��
2021/03/26,09:20,0.638,0.930,0.593,1.158,0.822,0.372,0.656,0.615,�k��,6.1,��
2021/03/26,09:30,0.637,0.930,0.593,1.157,0.821,0.372,0.655,0.617,���k��,5.2,��
2021/03/26,09:40,0.639,0.929,0.591,1.156,0.821,0.373,0.655,0.615,���k��,3.9,��
2021/03/26,09:50,0.636,0.931,0.592,1.159,0.821,0.372,0.656,0.613,�k��,6.1,��
2021/03/26,10:00,0.639,0.931,0.592,1.157,0.821,0.373,0.656,0.615,�k�k��,7.8,��
2021/03/26,10:10,0.638,0.933,0.595,1.160,0.820,0.373,0.657,0.615,�k��,7.2,��
2021/03/26,10:20,0.638,0.932,0.591,1.160,0.820,0.372,0.659,0.616,�k��,6.1,��
2021/03/26,10:30,0.637,0.934,0.593,1.158,0.821,0.373,0.658,0.616,�k��,6.8,��
2021/03/26,10:40,0.639,0.932,0.592,1.160,0.822,0.373,0.658,0.615,�k��,7.0,��
2021/03/26,10:50,0.638,0.934,0.593,1.160,0.823,0.373,0.656,0.616,�k��,6.6,��
2021/03/26,11:00,0.638,0.933,0.592,1.160,0.821,0.373,0.657,0.614,�k��,6.0,��
2021/03/26,11:10,0.639,0.935,0.591,1.159,0.822,0.372,0.657,0.616,�k��,8.0,��
2021/03/26,11:20,0.636,0.934,0.591,1.161,0.820,0.374,0.657,0.616,���k��,4.9,��
2021/03/26,11:30,0.638,0.935,0.592,1.162,0.821,0.371,0.659,0.614,�k��,7.7,��
2021/03/26,11:40,0.639,0.935,0.591,1.164,0.820,0.374,0.657,0.615,�k��,7.1,��
2021/03/26,11:50,0.638,0.937,0.593,1.163,0.822,0.374,0.657,0.616,�k��,6.2,��
2021/03/26,12:00,0.638,0.938,0.592,1.163,0.822,0.373,0.658,0.615,�k��,7.5,��
2021/03/26,12:10,0.638,0.936,0.593,1.160,0.822,0.373,0.655,0.614,�k��,6.1,��
2021/03/26,12:20,0.636,0.936,0.592,1.161,0.820,0.375,0.656,0.615,�k��,6.6,�L
2021/03/26,12:30,0.639,0.936,0.592,1.165,0.822,0.374,0.659,0.614,���k��,8.1,�L
2021/03/26,12:40,0.638,0.938,0.591,1.162,0.822,0.373,0.659,0.615,�k��,6.8,�L
2021/03/26,12:50,0.639,0.937,0.591,1.162,0.821,0.372,0.658,0.614,�k��,7.8,��
2021/03/26,13:00,0.638,0.937,0.592,1.164,0.822,0.373,0.657,0.616,�k��,8.4,��
2021/03/26,13:10,0.637,0.937,0.593,1.164,0.822,0.374,0.656,0.613,�k��,7.4,��
2021/03/26,13:20,0.638,0.938,0.593,1.164,0.823,0.374,0.658,0.614,�k�k��,4.3,��
2021/03/26,13:30,0.638,0.935,0.593,1.165,0.822,0.374,0.659,0.615,���k��,1.9,��
2021/03/26,13:40,0.638,0.936,0.592,1.163,0.822,0.373,0.655,0.616,��쓌,2.3,��
2021/03/26,13:50,0.638,0.935,0.591,1.162,0.821,0.372,0.658,0.615,��쓌,1.5,�L
2021/03/26,14:00,0.637,0.937,0.590,1.165,0.822,0.372,0.656,0.614,���k��,5.9,�L
2021/03/26,14:10,0.638,0.935,0.590,1.164,0.822,0.374,0.658,0.613,���k��,6.3,��
2021/03/26,14:20,0.637,0.937,0.592,1.166,0.826,0.373,0.657,0.615,�k��,8.0,��
2021/03/26,14:30,0.640,0.936,0.592,1.163,0.822,0.374,0.656,0.614,�k��,7.8,��
2021/03/26,14:40,0.639,0.936,0.592,1.165,0.822,0.375,0.656,0.615,���k��,6.2,��
2021/03/26,14:50,0.638,0.938,0.592,1.164,0.822,0.376,0.657,0.616,���k��,6.2,��
2021/03/26,15:00,0.639,0.937,0.592,1.164,0.823,0.374,0.656,0.615,��,6.4,��
2021/03/26,15:10,0.639,0.937,0.592,1.164,0.822,0.375,0.657,0.615,��,6.5,��
2021/03/26,15:20,0.639,0.939,0.592,1.163,0.822,0.374,0.658,0.615,���k��,6.6,��
2021/03/26,15:30,0.637,0.938,0.591,1.166,0.825,0.376,0.656,0.615,�k��,6.1,��
2021/03/26,15:40,0.639,0.940,0.592,1.167,0.823,0.373,0.657,0.615,�k��,6.6,��
2021/03/26,15:50,0.638,0.936,0.590,1.165,0.823,0.375,0.657,0.614,���k��,6.4,��
2021/03/26,16:00,0.637,0.937,0.592,1.166,0.821,0.375,0.656,0.615,�k��,8.5,��
2021/03/26,16:10,0.638,0.941,0.593,1.166,0.822,0.376,0.658,0.615,�k��,10.2,��
2021/03/26,16:20,0.638,0.940,0.592,1.165,0.821,0.374,0.656,0.615,���k��,8.7,��
2021/03/26,16:30,0.639,0.940,0.594,1.167,0.825,0.375,0.656,0.614,�k��,11.7,��
2021/03/26,16:40,0.640,0.940,0.592,1.166,0.823,0.375,0.656,0.614,�k��,9.2,��
2021/03/26,16:50,0.637,0.938,0.593,1.164,0.823,0.376,0.657,0.614,�k��,5.8,��
2021/03/26,17:00,0.638,0.937,0.593,1.167,0.823,0.376,0.655,0.614,�k�k��,6.6,��
2021/03/26,17:10,0.638,0.942,0.593,1.167,0.823,0.374,0.656,0.616,�k�k��,9.2,��
2021/03/26,17:20,0.640,0.940,0.595,1.166,0.822,0.375,0.656,0.617,�k��,8.9,��
2021/03/26,17:30,0.641,0.941,0.592,1.164,0.821,0.373,0.657,0.618,�k��,6.9,��
2021/03/26,17:40,0.640,0.939,0.592,1.164,0.822,0.374,0.657,0.617,�k��,8.7,��
2021/03/26,17:50,0.639,0.940,0.595,1.164,0.822,0.375,0.656,0.617,�k��,10.3,��
2021/03/26,18:00,0.638,0.941,0.592,1.163,0.826,0.375,0.657,0.616,�k��,12.2,��
2021/03/26,18:10,0.639,0.943,0.593,1.166,0.826,0.375,0.656,0.616,�k��,9.9,��
2021/03/26,18:20,0.638,0.939,0.595,1.165,0.825,0.376,0.658,0.616,�k��,9.8,��
2021/03/26,18:30,0.638,0.938,0.594,1.165,0.827,0.372,0.656,0.617,�k�k��,6.6,��
2021/03/26,18:40,0.640,0.941,0.592,1.166,0.827,0.375,0.656,0.617,�k��,7.4,��
2021/03/26,18:50,0.638,0.942,0.593,1.165,0.825,0.374,0.657,0.616,�k�k��,6.9,��
2021/03/26,19:00,0.639,0.941,0.592,1.166,0.827,0.372,0.656,0.617,�k�k��,7.0,��
2021/03/26,19:10,0.638,0.940,0.592,1.165,0.824,0.373,0.656,0.616,�k�k��,7.2,��
2021/03/26,19:20,0.637,0.941,0.591,1.167,0.824,0.374,0.655,0.616,�k�k��,4.9,��
2021/03/26,19:30,0.638,0.942,0.591,1.167,0.826,0.374,0.657,0.616,�k�k��,5.6,��
2021/03/26,19:40,0.638,0.939,0.594,1.167,0.823,0.374,0.656,0.616,�k�k��,6.6,��
2021/03/26,19:50,0.638,0.944,0.593,1.166,0.825,0.373,0.658,0.616,�k��,6.5,��
2021/03/26,20:00,0.638,0.942,0.591,1.167,0.823,0.374,0.657,0.616,�k��,6.4,��
2021/03/26,20:10,0.638,0.940,0.592,1.166,0.827,0.374,0.658,0.617,�k��,5.0,��
2021/03/26,20:20,0.636,0.942,0.591,1.165,0.824,0.375,0.658,0.618,�k�k��,6.3,��
2021/03/26,20:30,0.638,0.939,0.593,1.167,0.826,0.374,0.656,0.616,�k�k��,6.2,��
2021/03/26,20:40,0.639,0.940,0.592,1.165,0.825,0.374,0.656,0.617,�k��,6.7,��
2021/03/26,20:50,0.638,0.941,0.593,1.165,0.822,0.374,0.657,0.616,���k��,4.8,��
2021/03/26,21:00,0.639,0.940,0.594,1.164,0.824,0.374,0.656,0.616,�k�k��,3.1,��
2021/03/26,21:10,0.640,0.942,0.591,1.165,0.826,0.373,0.656,0.616,�k��,5.8,��
2021/03/26,21:20,0.638,0.941,0.593,1.166,0.827,0.373,0.656,0.617,���k��,4.7,��
2021/03/26,21:30,0.639,0.944,0.593,1.165,0.825,0.373,0.658,0.617,���k��,4.3,��
2021/03/26,21:40,0.639,0.942,0.593,1.165,0.825,0.374,0.656,0.616,���k��,5.7,��
2021/03/26,21:50,0.638,0.940,0.592,1.168,0.822,0.373,0.656,0.616,���k��,8.5,��
2021/03/26,22:00,0.639,0.940,0.593,1.165,0.824,0.372,0.657,0.616,���k��,7.6,��
2021/03/26,22:10,0.637,0.941,0.593,1.166,0.823,0.373,0.658,0.617,���k��,7.0,��
2021/03/26,22:20,0.638,0.941,0.592,1.167,0.822,0.374,0.656,0.617,�k��,6.7,��
2021/03/26,22:30,0.638,0.940,0.592,1.168,0.825,0.374,0.658,0.618,���k��,7.3,��
2021/03/26,22:40,0.640,0.941,0.594,1.166,0.824,0.373,0.657,0.616,�k��,6.0,��
2021/03/26,22:50,0.637,0.941,0.594,1.166,0.826,0.371,0.657,0.616,�k��,6.2,��
2021/03/26,23:00,0.637,0.940,0.591,1.165,0.825,0.373,0.658,0.618,�k��,7.5,��
2021/03/26,23:10,0.639,0.941,0.593,1.166,0.825,0.373,0.659,0.616,�k��,5.5,��
2021/03/26,23:20,0.638,0.939,0.592,1.166,0.822,0.372,0.658,0.617,�k�k��,4.6,��
2021/03/26,23:30,0.638,0.939,0.592,1.167,0.825,0.371,0.656,0.617,�k��,5.8,��
2021/03/26,23:40,0.638,0.940,0.592,1.167,0.823,0.375,0.657,0.616,�k��,6.8,��
2021/03/26,23:50,0.635,0.938,0.592,1.165,0.827,0.374,0.658,0.616,�k��,6.4,��
